CW9540 Weather Reports


time (UTC)temp
C
wind
direction
speed
KPH
gust
KPH
rain 1hr
cm
rain 24hr
cm
rain mn
cm
humidity
%
barometer
mb
20260504044550 12 213 4.8 12.9 0.00 0.00 0.00 51 1007.9
20260504043059 12 187 3.2 9.7 0.00 0.00 0.00 50 1007.9
20260504041549 12 223 4.8 11.3 0.00 0.00 0.00 50 1007.9
20260504040056 12 236 3.2 9.7 0.00 0.00 0.00 50 1007.9
20260504034552 12 207 3.2 8.0 0.00 0.00 0.00 49 1007.8
20260504033053 13 206 4.8 9.7 0.00 0.00 0.00 48 1007.9
20260504031549 12 210 1.6 11.3 0.00 0.00 0.00 49 1007.9
20260504030049 12 220 3.2 9.7 0.00 0.00 0.00 50 1007.9
20260504024550 12 229 1.6 6.4 0.00 0.00 0.00 50 1008.0
20260504023504 13 211 3.2 4.8 0.00 0.00 0.00 51 1007.2
20260504023048 12 178 3.2 8.0 0.00 0.00 0.00 50 1008.2
20260504023003 13 212 3.2 4.8 0.00 0.00 0.00 50 1007.3
20260504021545 12 203 3.2 9.7 0.00 0.00 0.00 50 1008.3
20260504020054 12 260 4.8 12.9 0.00 0.00 0.00 50 1008.2
20260504014550 12 223 3.2 14.5 0.00 0.00 0.00 50 1008.1
20260504014003 13 209 4.8 12.9 0.00 0.00 0.00 51 1007.3
20260504013050 12 191 6.4 17.7 0.00 0.00 0.00 51 1008.2
20260504011549 12 234 3.2 17.7 0.00 0.00 0.00 54 1008.6
20260504010052 12 215 6.4 16.1 0.00 0.00 0.00 53 1008.5
20260504004550 12 221 6.4 17.7 0.00 0.00 0.00 55 1008.5
20260504003049 12 269 4.8 14.5 0.00 0.00 0.00 57 1008.9
20260504001544 12 215 1.6 11.3 0.00 0.00 0.00 55 1008.9
20260504000052 12 305 1.6 8.0 0.00 0.00 0.00 54 1008.7
20260503235004 13 341 3.2 9.7 0.00 0.00 0.00 52 1007.8
20260503234550 12 229 3.2 16.1 0.00 0.00 0.00 51 1008.6
20260503234003 13 200 3.2 11.3 0.00 0.00 0.00 51 1007.8
20260503233048 13 306 6.4 22.5 0.00 0.00 0.00 49 1008.7
20260503231546 13 202 8.0 25.7 0.00 0.00 0.00 45 1008.3
20260503224546 14 245 4.8 29.0 0.00 0.00 0.00 42 1008.0
20260503224003 15 279 9.7 29.0 0.00 0.00 0.00 41 1007.3
20260503223052 14 223 6.4 22.5 0.00 0.00 0.00 40 1008.0
20260503221553 14 307 4.8 16.1 0.00 0.00 0.00 42 1007.8
20260503220053 14 291 4.8 14.5 0.00 0.00 0.00 42 1008.1
20260503214554 14 312 8.0 20.9 0.00 0.03 0.00 40 1008.3
20260503213054 14 230 6.4 20.9 0.00 0.03 0.00 41 1008.2
20260503211613 15 269 8.0 17.7 0.00 0.03 0.00 38 1008.0
20260503210052 15 337 4.8 19.3 0.00 0.03 0.00 37 1007.9
20260503204552 15 236 8.0 19.3 0.00 0.03 0.00 35 1007.9
20260503203052 14 262 6.4 19.3 0.00 0.03 0.00 36 1008.2
20260503201547 15 239 4.8 19.3 0.00 0.03 0.00 36 1008.4
20260503200058 13 203 8.0 19.3 0.00 0.03 0.00 37 1008.6
20260503194554 15 217 8.0 17.7 0.00 0.03 0.00 38 1009.0
20260503193059 13 212 9.7 22.5 0.00 0.03 0.00 38 1009.2
20260503191549 13 193 6.4 20.9 0.00 0.03 0.00 37 1009.4
20260503190050 13 169 6.4 17.7 0.00 0.03 0.00 37 1009.6
20260503184554 13 252 12.9 30.6 0.00 0.03 0.00 38 1010.0
20260503183050 13 15 3.2 22.5 0.00 0.03 0.00 37 1010.1
20260503181608 12 0 8.0 19.3 0.00 0.03 0.00 39 1010.2
20260503180107 12 1 8.0 19.3 0.00 0.03 0.00 40 1010.3
20260503174556 13 307 8.0 17.7 0.00 0.03 0.00 40 1010.4
20260503174004 13 274 3.2 12.9 0.00 0.03 0.00 42 1009.9
20260503173057 13 200 6.4 16.1 0.00 0.03 0.00 41 1010.5
20260503171542 13 211 4.8 17.7 0.00 0.03 0.00 43 1010.7
20260503081549 1 0 0.0 1.6 0.00 0.03 0.00 87 1012.8
20260503072504 2 129 0.0 1.6 0.00 0.03 0.00 82 1012.2
20260503072003 2 116 0.0 1.6 0.00 0.03 0.00 82 1012.2
20260503071547 2 135 0.0 1.6 0.00 0.03 0.00 81 1012.9
20260503071504 3 132 1.6 1.6 0.00 0.03 0.00 81 1012.3
20260503071004 3 124 1.6 1.6 0.00 0.03 0.00 81 1012.3
20260503070503 3 146 0.0 1.6 0.00 0.03 0.00 81 1012.2